SNJ35 RJTT-RJFU

Flight info

Callsign SNJ35
Flight time 1h 44m
Altitude 38000
Route TIARA GUSRO Y20 KAMMY Y204 OHGIE
Aircraft B738/M-SDE2E3FGHIRWXY/LB1

Departure

Time 2026-05-08 03:59
Airport Tokyo Haneda International Airport (RJTT)

Arrival

Time 2026-05-08 05:43
Airport Nagasaki Airport (RJFU)
Time Latitude Longitude Altitude Speed Heading
2026-05-08 03:29 35.56147 139.78471 28 ft 0 kts 60°
2026-05-08 03:52 35.56140 139.78456 28 ft 2 kts 60°
2026-05-08 03:52 35.56132 139.78441 28 ft 2 kts 60°
2026-05-08 03:52 35.56125 139.78424 28 ft 2 kts 60°
2026-05-08 03:53 35.56117 139.78409 27 ft 2 kts 60°
2026-05-08 03:53 35.56112 139.78397 28 ft 0 kts 60°
2026-05-08 03:53 35.56103 139.78386 27 ft 2 kts 16°
2026-05-08 03:53 35.56092 139.78386 28 ft 0 kts 334°
2026-05-08 03:54 35.56086 139.78391 28 ft 1 kts 329°
2026-05-08 03:54 35.56085 139.78391 28 ft 0 kts 329°
2026-05-08 03:56 35.56115 139.78369 28 ft 14 kts 330°
2026-05-08 03:57 35.56235 139.78285 27 ft 14 kts 329°
2026-05-08 03:57 35.56329 139.78226 27 ft 17 kts 348°
2026-05-08 03:57 35.56416 139.78322 27 ft 19 kts 61°
2026-05-08 03:57 35.56480 139.78461 28 ft 18 kts 60°
2026-05-08 03:58 35.56541 139.78589 28 ft 16 kts 60°
2026-05-08 03:58 35.56549 139.78680 28 ft 9 kts 135°
2026-05-08 03:58 35.56499 139.78720 28 ft 13 kts 150°
2026-05-08 03:58 35.56239 139.78900 28 ft 80 kts 150°
2026-05-08 03:59 35.55541 139.79399 28 ft 148 kts 150°
2026-05-08 03:59 35.54546 139.80141 364 ft 176 kts 150°
2026-05-08 03:59 35.53538 139.80933 1178 ft 181 kts 148°
2026-05-08 03:59 35.52606 139.82044 1867 ft 192 kts 136°
2026-05-08 04:00 35.51674 139.83336 2266 ft 211 kts 136°
2026-05-08 04:00 35.50632 139.84700 2698 ft 229 kts 139°
2026-05-08 04:00 35.49535 139.86058 3227 ft 241 kts 140°
2026-05-08 04:00 35.48452 139.87387 3889 ft 244 kts 140°
2026-05-08 04:01 35.47320 139.88853 4563 ft 252 kts 134°
2026-05-08 04:01 35.46421 139.90745 5142 ft 270 kts 113°
2026-05-08 04:01 35.46177 139.93092 5593 ft 294 kts 88°
2026-05-08 04:01 35.46672 139.95543 6339 ft 301 kts 69°
2026-05-08 04:02 35.47709 139.97752 7099 ft 306 kts 52°
2026-05-08 04:02 35.49267 139.99509 7755 ft 311 kts 27°
2026-05-08 04:02 35.51311 140.00262 8499 ft 307 kts 359°
2026-05-08 04:02 35.53413 140.00021 9303 ft 300 kts 338°
2026-05-08 04:03 35.55313 139.99091 10077 ft 296 kts 324°
2026-05-08 04:03 35.59059 139.96477 11042 ft 321 kts 314°
2026-05-08 04:03 35.60447 139.94345 11499 ft 318 kts 287°
2026-05-08 04:04 35.60842 139.92035 11907 ft 319 kts 267°
2026-05-08 04:04 35.60681 139.89088 12347 ft 333 kts 260°
2026-05-08 04:04 35.60477 139.86189 12801 ft 348 kts 263°
2026-05-08 04:04 35.60472 139.83121 13262 ft 363 kts 268°
2026-05-08 04:05 35.60643 139.80009 13873 ft 372 kts 270°
2026-05-08 04:05 35.60910 139.76823 14694 ft 375 kts 271°
2026-05-08 04:05 35.61203 139.73663 15501 ft 378 kts 271°
2026-05-08 04:05 35.61506 139.70428 16268 ft 381 kts 271°
2026-05-08 04:06 35.61798 139.67221 17004 ft 384 kts 271°
2026-05-08 04:06 35.62070 139.64151 17678 ft 387 kts 271°
2026-05-08 04:06 35.62358 139.60815 18321 ft 392 kts 271°
2026-05-08 04:06 35.62643 139.57497 19005 ft 394 kts 271°
2026-05-08 04:07 35.62929 139.54123 19672 ft 397 kts 271°
2026-05-08 04:07 35.63210 139.50774 20270 ft 401 kts 271°
2026-05-08 04:07 35.63497 139.47337 20867 ft 404 kts 271°
2026-05-08 04:07 35.63781 139.43916 21478 ft 407 kts 271°
2026-05-08 04:08 35.64065 139.40491 22053 ft 410 kts 271°
2026-05-08 04:08 35.64330 139.37251 22499 ft 414 kts 272°
2026-05-08 04:08 35.64617 139.33749 23104 ft 416 kts 271°
2026-05-08 04:08 35.64896 139.30337 23619 ft 420 kts 271°
2026-05-08 04:09 35.65162 139.27054 24063 ft 424 kts 271°
2026-05-08 04:09 35.65447 139.23544 24646 ft 426 kts 271°
2026-05-08 04:09 35.65740 139.19928 25102 ft 431 kts 271°
2026-05-08 04:09 35.66020 139.16324 25578 ft 434 kts 270°
2026-05-08 04:10 35.66168 139.12834 26370 ft 428 kts 266°
2026-05-08 04:10 35.66145 139.09279 27175 ft 423 kts 264°
2026-05-08 04:10 35.66021 139.05727 27902 ft 420 kts 263°
2026-05-08 04:10 35.65854 139.02179 28538 ft 419 kts 262°
2026-05-08 04:11 35.65671 138.98628 29158 ft 419 kts 263°
2026-05-08 04:11 35.65485 138.95053 29879 ft 417 kts 262°
2026-05-08 04:11 35.65307 138.91551 30587 ft 414 kts 263°
2026-05-08 04:11 35.65136 138.88069 31398 ft 409 kts 263°
2026-05-08 04:12 35.64971 138.84618 32210 ft 403 kts 263°
2026-05-08 04:12 35.64811 138.81218 32899 ft 399 kts 262°
2026-05-08 04:12 35.64651 138.77812 33467 ft 398 kts 263°
2026-05-08 04:12 35.64491 138.74402 34022 ft 397 kts 263°
2026-05-08 04:13 35.64331 138.71040 34603 ft 395 kts 263°
2026-05-08 04:13 35.64170 138.67648 35170 ft 394 kts 263°
2026-05-08 04:13 35.64005 138.64269 35706 ft 392 kts 263°
2026-05-08 04:13 35.63835 138.60927 36229 ft 390 kts 262°
2026-05-08 04:14 35.63663 138.57643 36706 ft 388 kts 263°
2026-05-08 04:14 35.63487 138.54340 37195 ft 387 kts 263°
2026-05-08 04:14 35.63308 138.51007 37647 ft 385 kts 262°
2026-05-08 04:14 35.63131 138.47723 37807 ft 388 kts 263°
2026-05-08 04:15 35.62775 138.41104 37831 ft 384 kts 262°
2026-05-08 04:15 35.62424 138.34586 37857 ft 384 kts 262°
2026-05-08 04:16 35.62064 138.27997 37870 ft 384 kts 262°
2026-05-08 04:16 35.61707 138.21463 37881 ft 383 kts 262°
2026-05-08 04:17 35.61346 138.14920 37875 ft 383 kts 262°
2026-05-08 04:17 35.60983 138.08441 37873 ft 381 kts 262°
2026-05-08 04:18 35.60613 138.01912 37867 ft 382 kts 262°
2026-05-08 04:18 35.60243 137.95390 37869 ft 380 kts 262°
2026-05-08 04:19 35.59871 137.88919 37867 ft 382 kts 262°
2026-05-08 04:19 35.59493 137.82399 37863 ft 381 kts 262°
2026-05-08 04:20 35.59094 137.75922 37861 ft 379 kts 261°
2026-05-08 04:20 35.58613 137.69457 37855 ft 380 kts 261°
2026-05-08 04:21 35.58121 137.63001 37850 ft 379 kts 261°
2026-05-08 04:21 35.57629 137.56528 37830 ft 378 kts 261°
2026-05-08 04:22 35.56807 137.50214 37819 ft 372 kts 255°
2026-05-08 04:22 35.55504 137.44132 37828 ft 370 kts 253°
2026-05-08 04:23 35.54126 137.38032 37831 ft 365 kts 253°
2026-05-08 04:23 35.52781 137.31996 37831 ft 370 kts 253°
2026-05-08 04:24 35.51580 137.26573 37832 ft 369 kts 252°
2026-05-08 04:24 35.50240 137.20512 37830 ft 368 kts 252°
2026-05-08 04:25 35.48900 137.14478 37827 ft 368 kts 253°
2026-05-08 04:25 35.47554 137.08426 37820 ft 368 kts 253°
2026-05-08 04:26 35.46196 137.02338 37808 ft 367 kts 253°
2026-05-08 04:26 35.44848 136.96312 37802 ft 368 kts 253°
2026-05-08 04:27 35.43493 136.90243 37805 ft 368 kts 253°
2026-05-08 04:27 35.42131 136.84180 37804 ft 367 kts 252°
2026-05-08 04:28 35.40783 136.78185 37802 ft 367 kts 253°
2026-05-08 04:28 35.39424 136.72150 37800 ft 367 kts 253°
2026-05-08 04:29 35.38065 136.66122 37822 ft 366 kts 253°
2026-05-08 04:29 35.36704 136.60112 37714 ft 366 kts 253°
2026-05-08 04:30 35.36024 136.57118 37818 ft 365 kts 252°
2026-05-08 04:30 35.35337 136.54097 37836 ft 369 kts 252°
2026-05-08 04:30 35.33960 136.48039 37829 ft 366 kts 253°
2026-05-08 04:31 35.32590 136.42044 37831 ft 365 kts 253°
2026-05-08 04:31 35.31221 136.36064 37827 ft 366 kts 252°
2026-05-08 04:32 35.29851 136.30090 37822 ft 366 kts 252°
2026-05-08 04:32 35.28466 136.24074 37817 ft 366 kts 253°
2026-05-08 04:33 35.27089 136.18083 37807 ft 366 kts 252°
2026-05-08 04:33 35.25706 136.12091 37800 ft 365 kts 252°
2026-05-08 04:34 35.24311 136.06073 37801 ft 366 kts 252°
2026-05-08 04:34 35.22923 136.00090 37807 ft 364 kts 252°
2026-05-08 04:35 35.21542 135.94142 37821 ft 364 kts 252°
2026-05-08 04:35 35.20146 135.88155 37830 ft 364 kts 252°
2026-05-08 04:36 35.18750 135.82193 37833 ft 364 kts 252°
2026-05-08 04:36 35.17466 135.76221 37841 ft 365 kts 255°
2026-05-08 04:37 35.16474 135.70129 37845 ft 364 kts 256°
2026-05-08 04:37 35.15512 135.64069 37843 ft 364 kts 257°
2026-05-08 04:38 35.14516 135.58003 37842 ft 359 kts 256°
2026-05-08 04:38 35.13512 135.52037 37839 ft 364 kts 256°
2026-05-08 04:39 35.12489 135.46001 37831 ft 362 kts 256°
2026-05-08 04:39 35.11463 135.39987 37832 ft 361 kts 256°
2026-05-08 04:40 35.10439 135.34003 37836 ft 362 kts 256°
2026-05-08 04:40 35.09403 135.27943 37834 ft 361 kts 256°
2026-05-08 04:41 35.08375 135.21960 37834 ft 360 kts 255°
2026-05-08 04:41 35.07341 135.15962 37832 ft 361 kts 256°
2026-05-08 04:42 35.06297 135.09944 37825 ft 361 kts 255°
2026-05-08 04:42 35.05267 135.04011 37816 ft 357 kts 256°
2026-05-08 04:43 35.04232 134.98048 37812 ft 360 kts 255°
2026-05-08 04:43 35.03177 134.92024 37815 ft 359 kts 255°
2026-05-08 04:44 35.02137 134.86092 37818 ft 358 kts 256°
2026-05-08 04:44 35.01088 134.80136 37822 ft 360 kts 255°
2026-05-08 04:45 35.00030 134.74138 37823 ft 360 kts 255°
2026-05-08 04:45 34.98962 134.68204 37825 ft 360 kts 254°
2026-05-08 04:46 34.97539 134.62360 37833 ft 360 kts 251°
2026-05-08 04:46 34.95965 134.56526 37832 ft 359 kts 251°
2026-05-08 04:47 34.94416 134.50732 37833 ft 360 kts 251°
2026-05-08 04:47 34.92891 134.44922 37838 ft 361 kts 251°
2026-05-08 04:48 34.91367 134.39104 37837 ft 361 kts 251°
2026-05-08 04:48 34.89847 134.33295 37840 ft 359 kts 251°
2026-05-08 04:49 34.88309 134.27434 37844 ft 359 kts 251°
2026-05-08 04:49 34.86787 134.21646 37847 ft 360 kts 251°
2026-05-08 04:50 34.85265 134.15857 37854 ft 359 kts 251°
2026-05-08 04:50 34.83732 134.10013 37932 ft 362 kts 251°
2026-05-08 04:51 34.82211 134.04244 37862 ft 357 kts 251°
2026-05-08 04:51 34.80672 133.98444 37859 ft 362 kts 251°
2026-05-08 04:52 34.79125 133.92622 37863 ft 362 kts 251°
2026-05-08 04:52 34.77575 133.86804 37870 ft 360 kts 251°
2026-05-08 04:53 34.76036 133.81026 37869 ft 362 kts 251°
2026-05-08 04:53 34.74479 133.75197 37878 ft 361 kts 251°
2026-05-08 04:54 34.72918 133.69357 37871 ft 362 kts 251°
2026-05-08 04:54 34.71360 133.63554 37874 ft 362 kts 251°
2026-05-08 04:55 34.69807 133.57773 37874 ft 362 kts 251°
2026-05-08 04:55 34.68246 133.51981 37872 ft 359 kts 251°
2026-05-08 04:56 34.66679 133.46184 37882 ft 364 kts 251°
2026-05-08 04:56 34.65103 133.40352 37882 ft 360 kts 251°
2026-05-08 04:57 34.63535 133.34578 37892 ft 360 kts 251°
2026-05-08 04:57 34.61954 133.28767 37889 ft 362 kts 250°
2026-05-08 04:58 34.60365 133.22926 37895 ft 362 kts 250°
2026-05-08 04:58 34.58792 133.17154 37909 ft 362 kts 251°
2026-05-08 04:59 34.57197 133.11311 37900 ft 364 kts 251°
2026-05-08 04:59 34.55615 133.05537 37909 ft 361 kts 251°
2026-05-08 05:00 34.54023 132.99747 37916 ft 362 kts 251°
2026-05-08 05:00 34.52430 132.93953 37921 ft 362 kts 251°
2026-05-08 05:01 34.50826 132.88138 37925 ft 362 kts 251°
2026-05-08 05:01 34.49242 132.82391 37924 ft 363 kts 251°
2026-05-08 05:02 34.47633 132.76579 37926 ft 362 kts 250°
2026-05-08 05:02 34.46037 132.70839 37926 ft 362 kts 251°
2026-05-08 05:03 34.44419 132.65030 37924 ft 363 kts 251°
2026-05-08 05:03 34.42813 132.59270 37924 ft 361 kts 251°
2026-05-08 05:04 34.41202 132.53508 37926 ft 362 kts 252°
2026-05-08 05:04 34.39584 132.47702 37929 ft 362 kts 251°
2026-05-08 05:05 34.37962 132.41921 37929 ft 364 kts 252°
2026-05-08 05:05 34.36341 132.36159 37932 ft 362 kts 251°
2026-05-08 05:06 34.34717 132.30383 37931 ft 363 kts 250°
2026-05-08 05:06 34.33091 132.24618 37936 ft 361 kts 251°
2026-05-08 05:07 34.31462 132.18852 37942 ft 364 kts 250°
2026-05-08 05:07 34.29824 132.13077 37941 ft 365 kts 250°
2026-05-08 05:08 34.28192 132.07288 37946 ft 364 kts 250°
2026-05-08 05:08 34.26555 132.01527 37955 ft 363 kts 250°
2026-05-08 05:09 34.24907 131.95763 37947 ft 363 kts 251°
2026-05-08 05:09 34.23259 131.89980 37953 ft 364 kts 250°
2026-05-08 05:10 34.20779 131.81316 37949 ft 365 kts 251°
2026-05-08 05:11 34.19132 131.75575 37952 ft 362 kts 251°
2026-05-08 05:11 34.17470 131.69814 37939 ft 364 kts 251°
2026-05-08 05:12 34.15807 131.64049 37945 ft 364 kts 251°
2026-05-08 05:12 34.14148 131.58298 37956 ft 362 kts 252°
2026-05-08 05:13 34.12484 131.52542 37955 ft 363 kts 252°
2026-05-08 05:13 34.10818 131.46786 37916 ft 362 kts 252°
2026-05-08 05:14 34.09159 131.41072 37957 ft 363 kts 251°
2026-05-08 05:14 34.07487 131.35329 37985 ft 363 kts 252°
2026-05-08 05:14 34.06651 131.32461 37880 ft 362 kts 251°
2026-05-08 05:15 34.05699 131.29649 37941 ft 364 kts 248°
2026-05-08 05:15 34.03447 131.24179 37947 ft 364 kts 245°
2026-05-08 05:16 34.01122 131.18771 37946 ft 364 kts 245°
2026-05-08 05:16 33.98872 131.13448 37851 ft 348 kts 245°
2026-05-08 05:16 33.97797 131.10887 37570 ft 340 kts 245°
2026-05-08 05:17 33.96740 131.08362 37166 ft 334 kts 246°
2026-05-08 05:17 33.95702 131.05867 36689 ft 334 kts 246°
2026-05-08 05:17 33.94650 131.03337 36165 ft 335 kts 246°
2026-05-08 05:17 33.93613 131.00848 35643 ft 336 kts 247°
2026-05-08 05:18 33.92565 130.98328 35089 ft 337 kts 246°
2026-05-08 05:18 33.91518 130.95813 34530 ft 339 kts 246°
2026-05-08 05:18 33.90448 130.93249 33944 ft 339 kts 247°
2026-05-08 05:18 33.89395 130.90727 33364 ft 342 kts 246°
2026-05-08 05:19 33.88318 130.88156 32760 ft 343 kts 247°
2026-05-08 05:19 33.87248 130.85597 32147 ft 342 kts 247°
2026-05-08 05:19 33.86179 130.83041 31525 ft 343 kts 246°
2026-05-08 05:19 33.85111 130.80492 30887 ft 342 kts 246°
2026-05-08 05:20 33.84053 130.77966 30253 ft 342 kts 246°
2026-05-08 05:20 33.82972 130.75389 29584 ft 342 kts 246°
2026-05-08 05:20 33.81908 130.72856 28915 ft 343 kts 246°
2026-05-08 05:20 33.80840 130.70311 28237 ft 343 kts 246°
2026-05-08 05:21 33.79760 130.67738 27549 ft 345 kts 246°
2026-05-08 05:21 33.78692 130.65201 26829 ft 345 kts 246°
2026-05-08 05:21 33.77610 130.62631 26050 ft 347 kts 246°
2026-05-08 05:21 33.76519 130.60045 25257 ft 347 kts 246°
2026-05-08 05:22 33.75412 130.57411 24451 ft 369 kts 246°
2026-05-08 05:22 33.74242 130.54625 23798 ft 379 kts 246°
2026-05-08 05:22 33.73036 130.51765 23235 ft 382 kts 246°
2026-05-08 05:22 33.71848 130.48956 22644 ft 379 kts 246°
2026-05-08 05:23 33.70664 130.46168 22059 ft 371 kts 246°
2026-05-08 05:23 33.69474 130.43442 21443 ft 366 kts 245°
2026-05-08 05:23 33.68137 130.40916 20835 ft 364 kts 238°
2026-05-08 05:23 33.66395 130.38710 20211 ft 369 kts 228°
2026-05-08 05:24 33.64256 130.36902 19556 ft 388 kts 220°
2026-05-08 05:24 33.61855 130.35266 18855 ft 402 kts 217°
2026-05-08 05:24 33.59372 130.33720 18146 ft 402 kts 215°
2026-05-08 05:24 33.56896 130.32245 17450 ft 399 kts 214°
2026-05-08 05:25 33.54415 130.30777 16730 ft 395 kts 214°
2026-05-08 05:25 33.51979 130.29329 16026 ft 392 kts 214°
2026-05-08 05:25 33.49547 130.27866 15348 ft 388 kts 214°
2026-05-08 05:25 33.47169 130.26424 14701 ft 384 kts 214°
2026-05-08 05:26 33.44787 130.24973 13998 ft 381 kts 214°
2026-05-08 05:26 33.42462 130.23550 13337 ft 377 kts 214°
2026-05-08 05:26 33.40119 130.22118 12657 ft 374 kts 213°
2026-05-08 05:26 33.37839 130.20721 12015 ft 370 kts 213°
2026-05-08 05:27 33.35551 130.19322 11461 ft 364 kts 213°
2026-05-08 05:27 33.33263 130.18094 11105 ft 357 kts 206°
2026-05-08 05:27 33.30895 130.17424 10958 ft 349 kts 193°
2026-05-08 05:27 33.28482 130.17213 10809 ft 338 kts 188°
2026-05-08 05:28 33.26163 130.17174 10633 ft 326 kts 187°
2026-05-08 05:28 33.23936 130.17149 10483 ft 314 kts 187°
2026-05-08 05:28 33.21814 130.17085 10346 ft 302 kts 188°
2026-05-08 05:28 33.19735 130.16985 10199 ft 292 kts 189°
2026-05-08 05:29 33.17742 130.16862 9958 ft 286 kts 190°
2026-05-08 05:29 33.15725 130.16725 9567 ft 287 kts 190°
2026-05-08 05:29 33.13753 130.16589 9204 ft 287 kts 189°
2026-05-08 05:29 33.11759 130.16457 8846 ft 287 kts 189°
2026-05-08 05:30 33.09768 130.16328 8490 ft 286 kts 188°
2026-05-08 05:30 33.07787 130.16205 8132 ft 286 kts 188°
2026-05-08 05:30 33.05794 130.16080 7775 ft 285 kts 188°
2026-05-08 05:30 33.03811 130.15955 7416 ft 284 kts 187°
2026-05-08 05:31 33.01840 130.15830 7062 ft 283 kts 187°
2026-05-08 05:31 32.99888 130.15704 6713 ft 283 kts 187°
2026-05-08 05:31 32.97907 130.15581 6359 ft 282 kts 187°
2026-05-08 05:31 32.95944 130.15457 6001 ft 282 kts 187°
2026-05-08 05:32 32.93992 130.15332 5652 ft 281 kts 186°
2026-05-08 05:32 32.92032 130.15208 5297 ft 281 kts 186°
2026-05-08 05:32 32.90094 130.15086 5019 ft 277 kts 186°
2026-05-08 05:32 32.88179 130.14967 4746 ft 273 kts 186°
2026-05-08 05:33 32.86277 130.14848 4386 ft 274 kts 186°
2026-05-08 05:33 32.84412 130.14732 4217 ft 265 kts 185°
2026-05-08 05:33 32.82594 130.14619 4102 ft 256 kts 186°
2026-05-08 05:33 32.80864 130.14388 3979 ft 245 kts 197°
2026-05-08 05:34 32.79377 130.13574 3855 ft 228 kts 225°
2026-05-08 05:34 32.78331 130.12227 3699 ft 217 kts 238°
2026-05-08 05:34 32.77644 130.10677 3400 ft 211 kts 261°
2026-05-08 05:34 32.77562 130.08997 3204 ft 198 kts 284°
2026-05-08 05:35 32.77927 130.07509 3143 ft 180 kts 294°
2026-05-08 05:35 32.78199 130.06107 3068 ft 173 kts 272°
2026-05-08 05:35 32.77750 130.04796 2853 ft 183 kts 236°
2026-05-08 05:35 32.76723 130.03900 2675 ft 185 kts 203°
2026-05-08 05:36 32.75444 130.03764 2755 ft 188 kts 179°
2026-05-08 05:36 32.74126 130.03838 2757 ft 190 kts 172°
2026-05-08 05:36 32.72953 130.04503 2754 ft 187 kts 131°
2026-05-08 05:36 32.72401 130.05856 2760 ft 178 kts 89°
2026-05-08 05:37 32.72600 130.07224 2755 ft 163 kts 52°
2026-05-08 05:37 32.73448 130.07985 2759 ft 151 kts
2026-05-08 05:37 32.74468 130.07941 2768 ft 148 kts 350°
2026-05-08 05:37 32.75407 130.07463 2756 ft 148 kts 317°
2026-05-08 05:38 32.76100 130.06551 2760 ft 148 kts 323°
2026-05-08 05:38 32.76985 130.05948 2760 ft 146 kts 336°
2026-05-08 05:38 32.77903 130.05420 2752 ft 147 kts 331°
2026-05-08 05:38 32.78760 130.04756 2711 ft 142 kts 325°
2026-05-08 05:39 32.79528 130.04056 2539 ft 139 kts 323°
2026-05-08 05:39 32.80311 130.03304 2500 ft 147 kts 322°
2026-05-08 05:39 32.81081 130.02527 2474 ft 140 kts 321°
2026-05-08 05:39 32.81804 130.01782 2338 ft 133 kts 322°
2026-05-08 05:40 32.82496 130.01071 2157 ft 132 kts 321°
2026-05-08 05:40 32.83193 130.00339 1975 ft 131 kts 321°
2026-05-08 05:40 32.83882 129.99612 1796 ft 132 kts 321°
2026-05-08 05:40 32.84560 129.98898 1624 ft 131 kts 320°
2026-05-08 05:41 32.85238 129.98169 1453 ft 131 kts 320°
2026-05-08 05:41 32.85920 129.97452 1274 ft 130 kts 320°
2026-05-08 05:41 32.86600 129.96739 1101 ft 130 kts 319°
2026-05-08 05:41 32.87275 129.96022 926 ft 129 kts 319°
2026-05-08 05:42 32.87949 129.95309 764 ft 129 kts 320°
2026-05-08 05:42 32.88633 129.94624 591 ft 130 kts 319°
2026-05-08 05:42 32.89314 129.93893 419 ft 130 kts 318°
2026-05-08 05:42 32.89984 129.93172 254 ft 130 kts 317°
2026-05-08 05:43 32.90661 129.92445 86 ft 131 kts 317°
2026-05-08 05:43 32.91322 129.91742 16 ft 121 kts 318°
2026-05-08 05:43 32.91921 129.91089 16 ft 107 kts 316°
2026-05-08 05:43 32.92319 129.90680 17 ft 36 kts 317°
2026-05-08 05:44 32.92475 129.90511 17 ft 27 kts 319°
2026-05-08 05:44 32.92615 129.90369 17 ft 25 kts 321°
2026-05-08 05:44 32.92760 129.90370 18 ft 23 kts 45°
2026-05-08 05:44 32.92724 129.90520 18 ft 21 kts 137°
2026-05-08 05:45 32.92604 129.90646 18 ft 27 kts 140°
2026-05-08 05:45 32.92440 129.90825 18 ft 33 kts 140°
2026-05-08 05:45 32.92268 129.91007 17 ft 32 kts 139°
2026-05-08 05:45 32.92100 129.91188 16 ft 32 kts 137°
2026-05-08 05:46 32.91935 129.91365 15 ft 31 kts 138°
2026-05-08 05:46 32.91772 129.91538 15 ft 31 kts 138°
2026-05-08 05:46 32.91613 129.91708 17 ft 27 kts 137°
2026-05-08 05:46 32.91507 129.91821 18 ft 17 kts 136°
2026-05-08 05:47 32.91419 129.91916 19 ft 16 kts 139°
2026-05-08 05:47 32.91337 129.92003 20 ft 15 kts 138°
2026-05-08 05:47 32.91290 129.92056 21 ft 5 kts 107°
2026-05-08 05:47 32.91302 129.92091 21 ft 4 kts 44°
2026-05-08 05:48 32.91317 129.92110 22 ft 2 kts 45°
2026-05-08 05:48 32.91343 129.92142 23 ft 6 kts 47°
2026-05-08 05:48 32.91367 129.92174 24 ft 3 kts 48°
2026-05-08 05:48 32.91377 129.92186 24 ft 0 kts 47°